Year,Month,Day,Hour,Minute,Value (Times are PST for windspeed in km/hr)
2016,03,29,00,00,3.80
2016,03,29,00,01,6.80
2016,03,29,00,02,5.50
2016,03,29,00,03,4.50
2016,03,29,00,04,4.80
2016,03,29,00,05,8.50
2016,03,29,00,06,6.70
2016,03,29,00,07,6.50
2016,03,29,00,08,3.90
2016,03,29,00,09,3.30
2016,03,29,00,10,5.00
2016,03,29,00,11,5.10
2016,03,29,00,12,3.60
2016,03,29,00,13,4.20
2016,03,29,00,14,3.90
2016,03,29,00,15,3.80
2016,03,29,00,16,2.70
2016,03,29,00,17,1.40
2016,03,29,00,18,3.60
2016,03,29,00,19,3.50
2016,03,29,00,20,2.40
2016,03,29,00,21,6.40
2016,03,29,00,22,3.70
2016,03,29,00,23,2.60
2016,03,29,00,24,7.50
2016,03,29,00,25,5.60
2016,03,29,00,26,8.90
2016,03,29,00,27,11.20
2016,03,29,00,28,5.60
2016,03,29,00,29,5.90
2016,03,29,00,30,4.20
2016,03,29,00,31,5.80
2016,03,29,00,32,7.80
2016,03,29,00,33,4.90
2016,03,29,00,34,2.30
2016,03,29,00,35,10.00
2016,03,29,00,36,2.30
2016,03,29,00,37,4.70
2016,03,29,00,38,4.60
2016,03,29,00,39,1.80
2016,03,29,00,40,3.90
2016,03,29,00,41,2.40
2016,03,29,00,42,2.30
2016,03,29,00,43,2.10
2016,03,29,00,44,2.10
2016,03,29,00,45,1.70
2016,03,29,00,46,6.10
2016,03,29,00,47,1.80
2016,03,29,00,48,4.10
2016,03,29,00,49,0.70
2016,03,29,00,50,2.70
2016,03,29,00,51,2.40
2016,03,29,00,52,3.00
2016,03,29,00,53,4.00
2016,03,29,00,54,1.60
2016,03,29,00,55,0.80
2016,03,29,00,56,0.70
2016,03,29,00,57,2.60
2016,03,29,00,58,0.80
2016,03,29,00,59,2.60
2016,03,29,01,00,3.10
2016,03,29,01,01,2.10
2016,03,29,01,02,1.50
2016,03,29,01,03,2.30
2016,03,29,01,04,3.60
2016,03,29,01,05,2.70
2016,03,29,01,06,3.50
2016,03,29,01,07,3.70
2016,03,29,01,08,3.40
2016,03,29,01,09,3.30
2016,03,29,01,10,3.80
2016,03,29,01,11,3.20
2016,03,29,01,12,4.50
2016,03,29,01,13,3.20
2016,03,29,01,14,5.50
2016,03,29,01,15,3.00
2016,03,29,01,16,4.50
2016,03,29,01,17,4.20
2016,03,29,01,18,1.70
2016,03,29,01,19,1.10
2016,03,29,01,20,1.70
2016,03,29,01,21,3.00
2016,03,29,01,22,5.20
2016,03,29,01,23,4.30
2016,03,29,01,24,3.10
2016,03,29,01,25,3.90
2016,03,29,01,26,4.70
2016,03,29,01,27,2.80
2016,03,29,01,28,2.70
2016,03,29,01,29,3.80
2016,03,29,01,30,4.90
2016,03,29,01,31,1.30
2016,03,29,01,32,4.20
2016,03,29,01,33,3.40
2016,03,29,01,34,0.40
2016,03,29,01,35,1.30
2016,03,29,01,36,3.10
2016,03,29,01,37,2.40
2016,03,29,01,38,1.40
2016,03,29,01,39,0.90
2016,03,29,01,40,4.20
2016,03,29,01,41,4.10
2016,03,29,01,42,1.90
2016,03,29,01,43,2.90
2016,03,29,01,44,2.40
2016,03,29,01,45,3.20
2016,03,29,01,46,2.00
2016,03,29,01,47,3.90
2016,03,29,01,48,3.00
2016,03,29,01,49,2.70
2016,03,29,01,50,4.40
2016,03,29,01,51,5.60
2016,03,29,01,52,4.30
2016,03,29,01,53,2.10
2016,03,29,01,54,2.50
2016,03,29,01,55,2.30
2016,03,29,01,56,0.80
2016,03,29,01,57,3.60
2016,03,29,01,58,2.30
2016,03,29,01,59,2.10
2016,03,29,02,00,2.10
2016,03,29,02,01,1.50
2016,03,29,02,02,2.60
2016,03,29,02,03,2.70
2016,03,29,02,04,3.60
2016,03,29,02,05,3.20
2016,03,29,02,06,3.30
2016,03,29,02,07,0.70
2016,03,29,02,08,1.90
2016,03,29,02,09,1.40
2016,03,29,02,10,1.50
2016,03,29,02,11,2.50
2016,03,29,02,12,2.00
2016,03,29,02,13,1.70
2016,03,29,02,14,1.30
2016,03,29,02,15,2.60
2016,03,29,02,16,5.70
2016,03,29,02,17,2.90
2016,03,29,02,18,3.90
2016,03,29,02,19,2.80
2016,03,29,02,20,3.70
2016,03,29,02,21,3.60
2016,03,29,02,22,2.00
2016,03,29,02,23,3.30
2016,03,29,02,24,4.20
2016,03,29,02,25,4.30
2016,03,29,02,26,2.70
2016,03,29,02,27,1.50
2016,03,29,02,28,4.30
2016,03,29,02,29,5.60
2016,03,29,02,30,2.90
2016,03,29,02,31,1.70
2016,03,29,02,32,4.00
2016,03,29,02,33,3.90
2016,03,29,02,34,3.10
2016,03,29,02,35,4.60
2016,03,29,02,36,2.90
2016,03,29,02,37,3.70
2016,03,29,02,38,3.10
2016,03,29,02,39,2.70
2016,03,29,02,40,4.40
2016,03,29,02,41,3.40
2016,03,29,02,42,4.30
2016,03,29,02,43,4.30
2016,03,29,02,44,11.30
2016,03,29,02,45,5.70
2016,03,29,02,46,6.80
2016,03,29,02,47,4.60
2016,03,29,02,48,2.60
2016,03,29,02,49,3.70
2016,03,29,02,50,3.70
2016,03,29,02,51,3.40
2016,03,29,02,52,2.30
2016,03,29,02,53,4.30
2016,03,29,02,54,2.90
2016,03,29,02,55,4.30
2016,03,29,02,56,1.60
2016,03,29,02,57,1.70
2016,03,29,02,58,4.30
2016,03,29,02,59,2.30
2016,03,29,03,00,1.80
2016,03,29,03,01,1.90
2016,03,29,03,02,2.60
2016,03,29,03,03,2.60
2016,03,29,03,04,3.50
2016,03,29,03,05,3.30
2016,03,29,03,06,4.80
2016,03,29,03,07,5.50
2016,03,29,03,08,3.70
2016,03,29,03,09,1.80
2016,03,29,03,10,4.60
2016,03,29,03,11,2.70
2016,03,29,03,12,3.40
2016,03,29,03,13,3.40
2016,03,29,03,14,4.50
2016,03,29,03,15,4.80
2016,03,29,03,16,1.50
2016,03,29,03,17,2.30
2016,03,29,03,18,4.50
2016,03,29,03,19,2.70
2016,03,29,03,20,4.10
2016,03,29,03,21,2.50
2016,03,29,03,22,3.20
2016,03,29,03,23,2.80
2016,03,29,03,24,3.30
2016,03,29,03,25,1.90
2016,03,29,03,26,3.10
2016,03,29,03,27,3.00
2016,03,29,03,28,5.20
2016,03,29,03,29,4.30
2016,03,29,03,30,4.90
2016,03,29,03,31,4.90
2016,03,29,03,32,4.10
2016,03,29,03,33,3.10
2016,03,29,03,34,2.30
2016,03,29,03,35,1.70
2016,03,29,03,36,2.60
2016,03,29,03,37,4.10
2016,03,29,03,38,1.40
2016,03,29,03,39,3.00
2016,03,29,03,40,2.60
2016,03,29,03,41,4.00
2016,03,29,03,42,6.40
2016,03,29,03,43,6.30
2016,03,29,03,44,8.30
2016,03,29,03,45,6.20
2016,03,29,03,46,6.20
2016,03,29,03,47,5.20
2016,03,29,03,48,7.00
2016,03,29,03,49,8.40
2016,03,29,03,50,7.10
2016,03,29,03,51,5.50
2016,03,29,03,52,6.30
2016,03,29,03,53,9.80
2016,03,29,03,54,11.90
2016,03,29,03,55,8.20
2016,03,29,03,56,8.40
2016,03,29,03,57,8.80
2016,03,29,03,58,8.20
2016,03,29,03,59,8.20
2016,03,29,04,00,3.50
2016,03,29,04,01,7.40
2016,03,29,04,02,5.30
2016,03,29,04,03,3.00
2016,03,29,04,04,4.20
2016,03,29,04,05,5.50
2016,03,29,04,06,3.90
2016,03,29,04,07,6.10
2016,03,29,04,08,4.70
2016,03,29,04,09,5.70
2016,03,29,04,10,5.50
2016,03,29,04,11,5.20
2016,03,29,04,12,8.60
2016,03,29,04,13,8.10
2016,03,29,04,14,9.20
2016,03,29,04,15,7.70
2016,03,29,04,16,6.40
2016,03,29,04,17,7.00
2016,03,29,04,18,8.00
2016,03,29,04,19,6.40
2016,03,29,04,20,4.60
2016,03,29,04,21,4.10
2016,03,29,04,22,6.00
2016,03,29,04,23,6.10
2016,03,29,04,24,5.10
2016,03,29,04,25,5.60
2016,03,29,04,26,8.50
2016,03,29,04,27,8.90
2016,03,29,04,28,5.10
2016,03,29,04,29,2.80
2016,03,29,04,30,3.60
2016,03,29,04,31,3.70
2016,03,29,04,32,3.50
2016,03,29,04,33,3.90
2016,03,29,04,34,3.10
2016,03,29,04,35,4.20
2016,03,29,04,36,5.40
2016,03,29,04,37,4.30
2016,03,29,04,38,5.20
2016,03,29,04,39,2.50
2016,03,29,04,40,5.50
2016,03,29,04,41,4.80
2016,03,29,04,42,6.00
2016,03,29,04,43,7.50
2016,03,29,04,44,5.70
2016,03,29,04,45,3.00
2016,03,29,04,46,6.80
2016,03,29,04,47,8.50
2016,03,29,04,48,6.60
2016,03,29,04,49,3.50
2016,03,29,04,50,4.50
2016,03,29,04,51,4.40
2016,03,29,04,52,3.70
2016,03,29,04,53,3.30
2016,03,29,04,54,6.20
2016,03,29,04,55,4.80
2016,03,29,04,56,4.50
2016,03,29,04,57,4.80
2016,03,29,04,58,4.00
2016,03,29,04,59,4.90
2016,03,29,05,00,4.80
2016,03,29,05,01,4.00
2016,03,29,05,02,4.10
2016,03,29,05,03,3.70
2016,03,29,05,04,5.60
2016,03,29,05,05,8.50
2016,03,29,05,06,8.60
2016,03,29,05,07,5.60
2016,03,29,05,08,2.60
2016,03,29,05,09,0.70
2016,03,29,05,10,1.70
2016,03,29,05,11,3.00
2016,03,29,05,12,1.80
2016,03,29,05,13,0.90
2016,03,29,05,14,2.40
2016,03,29,05,15,2.10
2016,03,29,05,16,2.40
2016,03,29,05,17,2.90
2016,03,29,05,18,0.90
2016,03,29,05,19,0.10
2016,03,29,05,20,2.60
2016,03,29,05,21,1.30
2016,03,29,05,22,1.60
2016,03,29,05,23,2.40
2016,03,29,05,24,0.50
2016,03,29,05,25,1.40
2016,03,29,05,26,0.80
2016,03,29,05,27,0.20
2016,03,29,05,28,1.50
2016,03,29,05,29,1.70
2016,03,29,05,30,1.40
2016,03,29,05,31,2.90
2016,03,29,05,32,2.50
2016,03,29,05,33,2.60
2016,03,29,05,34,2.10
2016,03,29,05,35,2.00
2016,03,29,05,36,2.60
2016,03,29,05,37,2.00
2016,03,29,05,38,2.40
2016,03,29,05,39,2.20
2016,03,29,05,40,3.20
2016,03,29,05,41,2.90
2016,03,29,05,42,2.80
2016,03,29,05,43,2.50
2016,03,29,05,44,3.90
2016,03,29,05,45,2.70
2016,03,29,05,46,1.00
2016,03,29,05,47,4.00
2016,03,29,05,48,0.50
2016,03,29,05,49,2.50
2016,03,29,05,50,2.80
2016,03,29,05,51,2.30
2016,03,29,05,52,1.70
2016,03,29,05,53,3.30
2016,03,29,05,54,2.30
2016,03,29,05,55,2.40
2016,03,29,05,56,2.00
2016,03,29,05,57,2.90
2016,03,29,05,58,3.00
2016,03,29,05,59,2.10
2016,03,29,06,00,3.00
2016,03,29,06,01,3.20
2016,03,29,06,02,4.90
2016,03,29,06,03,3.60
2016,03,29,06,04,2.70
2016,03,29,06,05,2.00
2016,03,29,06,06,2.90
2016,03,29,06,07,2.30
2016,03,29,06,08,2.70
2016,03,29,06,09,3.30
2016,03,29,06,10,2.90
2016,03,29,06,11,3.40
2016,03,29,06,12,3.10
2016,03,29,06,13,2.00
2016,03,29,06,14,1.40
2016,03,29,06,15,1.30
2016,03,29,06,16,1.10
2016,03,29,06,17,1.70
2016,03,29,06,18,1.60
2016,03,29,06,19,1.80
2016,03,29,06,20,1.90
2016,03,29,06,21,2.80
2016,03,29,06,22,2.00
2016,03,29,06,23,2.50
2016,03,29,06,24,2.00
2016,03,29,06,25,1.50
2016,03,29,06,26,1.70
2016,03,29,06,27,2.00
2016,03,29,06,28,1.40
2016,03,29,06,29,1.50
2016,03,29,06,30,1.40
2016,03,29,06,31,2.20
2016,03,29,06,32,1.30
2016,03,29,06,33,2.40
2016,03,29,06,34,2.10
2016,03,29,06,35,2.00
2016,03,29,06,36,2.60
2016,03,29,06,37,3.10
2016,03,29,06,38,3.30
2016,03,29,06,39,3.00
2016,03,29,06,40,3.50
2016,03,29,06,41,3.70
2016,03,29,06,42,3.40
2016,03,29,06,43,3.60
2016,03,29,06,44,3.70
2016,03,29,06,45,3.20
2016,03,29,06,46,3.30
2016,03,29,06,47,4.70
2016,03,29,06,48,4.30
2016,03,29,06,49,3.00
2016,03,29,06,50,3.10
2016,03,29,06,51,3.00
2016,03,29,06,52,4.30
2016,03,29,06,53,3.00
2016,03,29,06,54,4.20
2016,03,29,06,55,4.50
2016,03,29,06,56,5.20
2016,03,29,06,57,3.80
2016,03,29,06,58,4.50
2016,03,29,06,59,5.70
2016,03,29,07,00,7.60
2016,03,29,07,01,3.00
2016,03,29,07,02,5.70
2016,03,29,07,03,4.70
2016,03,29,07,04,4.70
2016,03,29,07,05,5.10
2016,03,29,07,06,3.40
2016,03,29,07,07,4.70
2016,03,29,07,08,3.30
2016,03,29,07,09,4.70
2016,03,29,07,10,3.20
2016,03,29,07,11,5.20
2016,03,29,07,12,5.40
2016,03,29,07,13,5.50
2016,03,29,07,14,8.20
2016,03,29,07,15,7.70
2016,03,29,07,16,3.50
2016,03,29,07,17,7.60
2016,03,29,07,18,11.60
2016,03,29,07,19,5.20
2016,03,29,07,20,3.80
2016,03,29,07,21,5.10
2016,03,29,07,22,4.00
2016,03,29,07,23,1.60
2016,03,29,07,24,8.20
2016,03,29,07,25,9.40
2016,03,29,07,26,11.80
2016,03,29,07,27,7.00
2016,03,29,07,28,10.30
2016,03,29,07,29,7.50
2016,03,29,07,30,7.80
2016,03,29,07,31,7.90
2016,03,29,07,32,5.20
2016,03,29,07,33,9.10
2016,03,29,07,34,7.90
2016,03,29,07,35,10.60
2016,03,29,07,36,7.30
2016,03,29,07,37,14.00
2016,03,29,07,38,9.50
2016,03,29,07,39,6.10
2016,03,29,07,40,13.10
2016,03,29,07,41,10.90
2016,03,29,07,42,8.90
2016,03,29,07,43,10.90
2016,03,29,07,44,7.30
2016,03,29,07,45,7.90
2016,03,29,07,46,9.10
2016,03,29,07,47,11.20
2016,03,29,07,48,11.60
2016,03,29,07,49,5.50
2016,03,29,07,50,3.50
2016,03,29,07,51,6.00
2016,03,29,07,52,2.30
2016,03,29,07,53,4.10
2016,03,29,07,54,2.30
2016,03,29,07,55,2.40
2016,03,29,07,56,2.30
2016,03,29,07,57,2.80
2016,03,29,07,58,1.50
2016,03,29,07,59,1.60
2016,03,29,08,00,2.00
2016,03,29,08,01,3.20
2016,03,29,08,02,4.40
2016,03,29,08,03,2.00
2016,03,29,08,04,1.30
2016,03,29,08,05,4.90
2016,03,29,08,06,4.20
2016,03,29,08,07,5.20
2016,03,29,08,08,3.30
2016,03,29,08,09,1.70
2016,03,29,08,10,1.00
2016,03,29,08,11,1.60
2016,03,29,08,12,1.60
2016,03,29,08,13,1.20
2016,03,29,08,14,3.10
2016,03,29,08,15,6.90
2016,03,29,08,16,3.10
2016,03,29,08,17,4.30
2016,03,29,08,18,3.60
2016,03,29,08,19,5.20
2016,03,29,08,20,8.50
2016,03,29,08,21,8.00
2016,03,29,08,22,4.60
2016,03,29,08,23,4.80
2016,03,29,08,24,7.20
2016,03,29,08,25,6.00
2016,03,29,08,26,1.70
2016,03,29,08,27,1.00
2016,03,29,08,28,3.20
2016,03,29,08,29,5.50
2016,03,29,08,30,8.90
2016,03,29,08,31,6.10
2016,03,29,08,32,7.30
2016,03,29,08,33,5.40
2016,03,29,08,34,4.90
2016,03,29,08,35,7.60
2016,03,29,08,36,8.90
2016,03,29,08,37,7.60
2016,03,29,08,38,5.20
2016,03,29,08,39,3.30
2016,03,29,08,40,12.50
2016,03,29,08,41,10.20
2016,03,29,08,42,5.90
2016,03,29,08,43,4.10
2016,03,29,08,44,5.30
2016,03,29,08,45,12.10
2016,03,29,08,46,8.30
2016,03,29,08,47,3.40
2016,03,29,08,48,1.10
2016,03,29,08,49,1.10
2016,03,29,08,50,1.50
2016,03,29,08,51,0.90
2016,03,29,08,52,3.90
2016,03,29,08,53,4.80
2016,03,29,08,54,2.70
2016,03,29,08,55,3.40
2016,03,29,08,56,5.10
2016,03,29,08,57,9.60
2016,03,29,08,58,7.70
2016,03,29,08,59,10.40
2016,03,29,09,00,7.20
2016,03,29,09,01,6.50
2016,03,29,09,02,4.40
2016,03,29,09,03,2.00
2016,03,29,09,04,6.90
2016,03,29,09,05,5.70
2016,03,29,09,06,7.20
2016,03,29,09,07,9.20
2016,03,29,09,08,9.00
2016,03,29,09,09,10.60
2016,03,29,09,10,12.00
2016,03,29,09,11,8.70
2016,03,29,09,12,8.80
2016,03,29,09,13,14.10
2016,03,29,09,14,15.50
2016,03,29,09,15,9.50
2016,03,29,09,16,13.70
2016,03,29,09,17,10.80
2016,03,29,09,18,5.40
2016,03,29,09,19,7.00
2016,03,29,09,20,4.80
2016,03,29,09,21,8.00
2016,03,29,09,22,6.50
2016,03,29,09,23,11.90
2016,03,29,09,24,12.90
2016,03,29,09,25,11.00
2016,03,29,09,26,8.50
2016,03,29,09,27,7.90
2016,03,29,09,28,9.50
2016,03,29,09,29,12.50
2016,03,29,09,30,9.50
2016,03,29,09,31,3.90
2016,03,29,09,32,2.00
2016,03,29,09,33,2.00
2016,03,29,09,34,1.00
2016,03,29,09,35,5.10
2016,03,29,09,36,4.40
2016,03,29,09,37,0.50
2016,03,29,09,38,0.70
2016,03,29,09,39,2.70
2016,03,29,09,40,2.40
2016,03,29,09,41,1.00
2016,03,29,09,42,0.20
2016,03,29,09,43,1.60
2016,03,29,09,44,1.60
2016,03,29,09,45,1.70
2016,03,29,09,46,3.80
2016,03,29,09,47,3.70
2016,03,29,09,48,3.30
2016,03,29,09,49,2.90
2016,03,29,09,50,3.40
2016,03,29,09,51,1.30
2016,03,29,09,52,1.50
2016,03,29,09,53,0.40
2016,03,29,09,54,1.10
2016,03,29,09,55,1.00
2016,03,29,09,56,0.80
2016,03,29,09,57,0.20
2016,03,29,09,58,0.10
2016,03,29,09,59,0.00
2016,03,29,10,00,0.00
2016,03,29,10,01,1.00
2016,03,29,10,02,1.90
2016,03,29,10,03,4.30
2016,03,29,10,04,1.10
2016,03,29,10,05,3.00
2016,03,29,10,06,1.30
2016,03,29,10,07,0.10
2016,03,29,10,08,2.30
2016,03,29,10,09,2.10
2016,03,29,10,10,0.70
2016,03,29,10,11,0.80
2016,03,29,10,12,2.10
2016,03,29,10,13,0.90
2016,03,29,10,14,1.10
2016,03,29,10,15,0.70
2016,03,29,10,16,3.00
2016,03,29,10,17,5.50
2016,03,29,10,18,5.10
2016,03,29,10,19,5.10
2016,03,29,10,20,2.70
2016,03,29,10,21,3.90
2016,03,29,10,22,3.00
2016,03,29,10,23,4.00
2016,03,29,10,24,3.80
2016,03,29,10,25,3.20
2016,03,29,10,26,1.00
2016,03,29,10,27,2.40
2016,03,29,10,28,2.70
2016,03,29,10,29,2.40
2016,03,29,10,30,2.90
2016,03,29,10,31,0.40
2016,03,29,10,32,0.30
2016,03,29,10,33,4.10
2016,03,29,10,34,5.20
2016,03,29,10,35,4.20
2016,03,29,10,36,1.40
2016,03,29,10,37,0.50
2016,03,29,10,38,2.00
2016,03,29,10,39,2.50
2016,03,29,10,40,4.50
2016,03,29,10,41,6.50
2016,03,29,10,42,5.50
2016,03,29,10,43,6.30
2016,03,29,10,44,2.50
2016,03,29,10,45,1.30
2016,03,29,10,46,3.20
2016,03,29,10,47,3.10
2016,03,29,10,48,2.60
2016,03,29,10,49,1.40
2016,03,29,10,50,4.20
2016,03,29,10,51,3.70
2016,03,29,10,52,4.20
2016,03,29,10,53,3.30
2016,03,29,10,54,3.00
2016,03,29,10,55,5.10
2016,03,29,10,56,4.80
2016,03,29,10,57,5.70
2016,03,29,10,58,0.70
2016,03,29,10,59,0.70
2016,03,29,11,00,0.50
2016,03,29,11,01,3.50
2016,03,29,11,02,5.80
2016,03,29,11,03,6.90
2016,03,29,11,04,3.90
2016,03,29,11,05,4.70
2016,03,29,11,06,4.30
2016,03,29,11,07,6.20
2016,03,29,11,08,6.20
2016,03,29,11,09,5.50
2016,03,29,11,10,4.10
2016,03,29,11,11,3.60
2016,03,29,11,12,2.00
2016,03,29,11,13,4.90
2016,03,29,11,14,7.30
2016,03,29,11,15,3.60
2016,03,29,11,16,3.70
2016,03,29,11,17,3.10
2016,03,29,11,18,2.50
2016,03,29,11,19,1.70
2016,03,29,11,20,3.00
2016,03,29,11,21,5.50
2016,03,29,11,22,4.20
2016,03,29,11,23,4.70
2016,03,29,11,24,4.70
2016,03,29,11,25,5.10
2016,03,29,11,26,4.70
2016,03,29,11,27,2.70
2016,03,29,11,28,3.90
2016,03,29,11,29,3.90
2016,03,29,11,30,4.60
2016,03,29,11,31,4.10
2016,03,29,11,32,4.90
2016,03,29,11,33,6.30
2016,03,29,11,34,6.10
2016,03,29,11,35,6.60
2016,03,29,11,36,5.00
2016,03,29,11,37,3.30
2016,03,29,11,38,2.40
2016,03,29,11,39,4.90
2016,03,29,11,40,5.20
2016,03,29,11,41,3.20
2016,03,29,11,42,6.20
2016,03,29,11,43,4.60
2016,03,29,11,44,4.80
2016,03,29,11,45,3.50
2016,03,29,11,46,3.00
2016,03,29,11,47,3.00
2016,03,29,11,48,4.10
2016,03,29,11,49,8.40
2016,03,29,11,50,3.60
2016,03,29,11,51,5.50
2016,03,29,11,52,3.00
2016,03,29,11,53,5.50
2016,03,29,11,54,5.70
2016,03,29,11,55,4.90
2016,03,29,11,56,6.60
2016,03,29,11,57,5.80
2016,03,29,11,58,5.60
2016,03,29,11,59,6.30
2016,03,29,12,00,5.30
2016,03,29,12,01,7.20
2016,03,29,12,02,8.40
2016,03,29,12,03,7.10
2016,03,29,12,04,10.00
2016,03,29,12,05,6.90
2016,03,29,12,06,3.30
2016,03,29,12,07,4.60
2016,03,29,12,08,6.30
2016,03,29,12,09,5.30
2016,03,29,12,10,4.20
2016,03,29,12,11,5.10
2016,03,29,12,12,7.60
2016,03,29,12,13,7.50
2016,03,29,12,14,9.00
2016,03,29,12,15,7.80
2016,03,29,12,16,4.20
2016,03,29,12,17,8.30
2016,03,29,12,18,6.40
2016,03,29,12,19,8.10
2016,03,29,12,20,7.10
2016,03,29,12,21,6.10
2016,03,29,12,22,2.80
2016,03,29,12,23,7.20
2016,03,29,12,24,6.40
2016,03,29,12,25,6.60
2016,03,29,12,26,5.80
2016,03,29,12,27,7.00
2016,03,29,12,28,5.70
2016,03,29,12,29,5.20
2016,03,29,12,30,6.40
2016,03,29,12,31,9.30
2016,03,29,12,32,5.80
2016,03,29,12,33,7.00
2016,03,29,12,34,6.40
2016,03,29,12,35,5.20
2016,03,29,12,36,5.40
2016,03,29,12,37,4.90
2016,03,29,12,38,6.00
2016,03,29,12,39,7.50
2016,03,29,12,40,6.00
2016,03,29,12,41,4.90
2016,03,29,12,42,5.20
2016,03,29,12,43,6.70
2016,03,29,12,44,6.30
2016,03,29,12,45,5.00
2016,03,29,12,46,5.60
2016,03,29,12,47,6.70
2016,03,29,12,48,6.80
2016,03,29,12,49,6.00
2016,03,29,12,50,6.30
2016,03,29,12,51,9.20
2016,03,29,12,52,7.80
2016,03,29,12,53,4.70
2016,03,29,12,54,5.10
2016,03,29,12,55,7.60
2016,03,29,12,56,9.20
2016,03,29,12,57,4.10
2016,03,29,12,58,5.80
2016,03,29,12,59,5.20
2016,03,29,13,00,4.90
2016,03,29,13,01,5.10
2016,03,29,13,02,7.40
2016,03,29,13,03,4.00
2016,03,29,13,04,4.30
2016,03,29,13,05,4.00
2016,03,29,13,06,3.00
2016,03,29,13,07,1.90
2016,03,29,13,08,3.20
2016,03,29,13,09,3.70
2016,03,29,13,10,4.20
2016,03,29,13,11,2.70
2016,03,29,13,12,4.00
2016,03,29,13,13,3.80
2016,03,29,13,14,4.60
2016,03,29,13,15,3.50
2016,03,29,13,16,4.50
2016,03,29,13,17,4.50
2016,03,29,13,18,3.90
2016,03,29,13,19,5.10
2016,03,29,13,20,3.40
2016,03,29,13,21,5.80
2016,03,29,13,22,4.00
2016,03,29,13,23,4.60
2016,03,29,13,24,4.00
2016,03,29,13,25,4.50
2016,03,29,13,26,5.60
2016,03,29,13,27,5.40
2016,03,29,13,28,5.40
2016,03,29,13,29,3.40
2016,03,29,13,30,6.20
2016,03,29,13,31,5.50
2016,03,29,13,32,7.20
2016,03,29,13,33,5.70
2016,03,29,13,34,5.70
2016,03,29,13,35,4.10
2016,03,29,13,36,5.50
2016,03,29,13,37,3.80
2016,03,29,13,38,6.10
2016,03,29,13,39,4.10
2016,03,29,13,40,4.60
2016,03,29,13,41,4.00
2016,03,29,13,42,4.30
2016,03,29,13,43,2.50
2016,03,29,13,44,4.60
2016,03,29,13,45,3.20
2016,03,29,13,46,3.30
2016,03,29,13,47,4.40
2016,03,29,13,48,5.40
2016,03,29,13,49,3.60
2016,03,29,13,50,3.20
2016,03,29,13,51,4.20
2016,03,29,13,52,3.90
2016,03,29,13,53,7.60
2016,03,29,13,54,3.50
2016,03,29,13,55,4.30
2016,03,29,13,56,4.70
2016,03,29,13,57,7.80
2016,03,29,13,58,6.90
2016,03,29,13,59,7.30
2016,03,29,14,00,7.80
2016,03,29,14,01,5.00
2016,03,29,14,02,4.60
2016,03,29,14,03,4.30
2016,03,29,14,04,5.00
2016,03,29,14,05,5.30
2016,03,29,14,06,4.80
2016,03,29,14,07,1.80
2016,03,29,14,08,3.60
2016,03,29,14,09,3.20
2016,03,29,14,10,5.90
2016,03,29,14,11,2.70
2016,03,29,14,12,2.10
2016,03,29,14,13,3.40
2016,03,29,14,14,3.80
2016,03,29,14,15,5.00
2016,03,29,14,16,2.80
2016,03,29,14,17,3.90
2016,03,29,14,18,5.10
2016,03,29,14,19,5.50
2016,03,29,14,20,3.40
2016,03,29,14,21,2.90
2016,03,29,14,22,5.20
2016,03,29,14,23,5.70
2016,03,29,14,24,4.40
2016,03,29,14,25,1.80
2016,03,29,14,26,2.30
2016,03,29,14,27,3.20
2016,03,29,14,28,3.10
2016,03,29,14,29,2.80
2016,03,29,14,30,3.30
2016,03,29,14,31,4.80
2016,03,29,14,32,6.00
2016,03,29,14,33,5.10
2016,03,29,14,34,4.30
2016,03,29,14,35,3.20
2016,03,29,14,36,3.30
2016,03,29,14,37,3.90
2016,03,29,14,38,3.00
2016,03,29,14,39,4.20
2016,03,29,14,40,3.20
2016,03,29,14,41,2.40
2016,03,29,14,42,4.30
2016,03,29,14,43,3.50
2016,03,29,14,44,2.80
2016,03,29,14,45,3.30
2016,03,29,14,46,6.00
2016,03,29,14,47,5.00
2016,03,29,14,48,3.00
2016,03,29,14,49,4.00
2016,03,29,14,50,4.90
2016,03,29,14,51,6.10
2016,03,29,14,52,6.30
2016,03,29,14,53,4.40
2016,03,29,14,54,4.40
2016,03,29,14,55,4.90
2016,03,29,14,56,3.70
2016,03,29,14,57,2.90
2016,03,29,14,58,4.80
2016,03,29,14,59,4.10
2016,03,29,15,00,3.60
2016,03,29,15,01,4.30
2016,03,29,15,02,4.30
2016,03,29,15,03,3.00
2016,03,29,15,04,0.90
2016,03,29,15,05,2.30
2016,03,29,15,06,3.00
2016,03,29,15,07,2.20
2016,03,29,15,08,5.70
2016,03,29,15,09,2.80
2016,03,29,15,10,6.00
2016,03,29,15,11,4.40
2016,03,29,15,12,3.10
2016,03,29,15,13,4.60
2016,03,29,15,14,2.00
2016,03,29,15,15,3.20
2016,03,29,15,16,3.60
2016,03,29,15,17,4.30
2016,03,29,15,18,5.20
2016,03,29,15,19,3.90
2016,03,29,15,20,3.90
2016,03,29,15,21,4.00
2016,03,29,15,22,4.30
2016,03,29,15,23,5.50
2016,03,29,15,24,4.10
2016,03,29,15,25,4.10
2016,03,29,15,26,3.20
2016,03,29,15,27,2.30
2016,03,29,15,28,3.90
2016,03,29,15,29,2.10
2016,03,29,15,30,4.50
2016,03,29,15,31,4.50
2016,03,29,15,32,7.50
2016,03,29,15,33,3.60
2016,03,29,15,34,3.30
2016,03,29,15,35,3.40
2016,03,29,15,36,6.10
2016,03,29,15,37,7.60
2016,03,29,15,38,6.50
2016,03,29,15,39,6.40
2016,03,29,15,40,5.80
2016,03,29,15,41,4.60
2016,03,29,15,42,5.40
2016,03,29,15,43,6.30
2016,03,29,15,44,4.50
2016,03,29,15,45,4.60
2016,03,29,15,46,4.70
2016,03,29,15,47,3.20
2016,03,29,15,48,4.20
2016,03,29,15,49,4.00
2016,03,29,15,50,3.90
2016,03,29,15,51,3.20
2016,03,29,15,52,3.60
2016,03,29,15,53,3.10
2016,03,29,15,54,4.20
2016,03,29,15,55,4.30
2016,03,29,15,56,4.80
2016,03,29,15,57,6.20
2016,03,29,15,58,5.10
2016,03,29,15,59,3.70
2016,03,29,16,00,4.70
2016,03,29,16,01,4.80
2016,03,29,16,02,3.60
2016,03,29,16,03,3.00
2016,03,29,16,04,3.90
2016,03,29,16,05,4.40
2016,03,29,16,06,5.80
2016,03,29,16,07,5.40
2016,03,29,16,08,4.00
2016,03,29,16,09,3.30
2016,03,29,16,10,4.50
2016,03,29,16,11,4.50
2016,03,29,16,12,7.10
2016,03,29,16,13,4.80
2016,03,29,16,14,5.40
2016,03,29,16,15,5.30
2016,03,29,16,16,6.50
2016,03,29,16,17,5.40
2016,03,29,16,18,4.00
2016,03,29,16,19,4.00
2016,03,29,16,20,3.90
2016,03,29,16,21,4.60
2016,03,29,16,22,4.90
2016,03,29,16,23,4.20
2016,03,29,16,24,3.30
2016,03,29,16,25,2.30
2016,03,29,16,26,4.70
2016,03,29,16,27,3.50
2016,03,29,16,28,4.30
2016,03,29,16,29,4.60
2016,03,29,16,30,5.50
2016,03,29,16,31,4.90
2016,03,29,16,32,6.20
2016,03,29,16,33,6.60
2016,03,29,16,34,5.70
2016,03,29,16,35,6.10
2016,03,29,16,36,5.40
2016,03,29,16,37,5.50
2016,03,29,16,38,5.10
2016,03,29,16,39,4.00
2016,03,29,16,40,3.60
2016,03,29,16,41,4.70
2016,03,29,16,42,5.10
2016,03,29,16,43,5.20
2016,03,29,16,44,5.70
2016,03,29,16,45,5.90
2016,03,29,16,46,4.30
2016,03,29,16,47,3.40
2016,03,29,16,48,4.00
2016,03,29,16,49,5.70
2016,03,29,16,50,5.10
2016,03,29,16,51,4.80
2016,03,29,16,52,2.60
2016,03,29,16,53,4.70
2016,03,29,16,54,3.80
2016,03,29,16,55,5.10
2016,03,29,16,56,2.40
2016,03,29,16,57,2.20
2016,03,29,16,58,2.70
2016,03,29,16,59,3.60
2016,03,29,17,00,4.60
2016,03,29,17,01,3.60
2016,03,29,17,02,3.20
2016,03,29,17,03,3.10
2016,03,29,17,04,2.50
2016,03,29,17,05,4.60
2016,03,29,17,06,4.10
2016,03,29,17,07,4.00
2016,03,29,17,08,3.90
2016,03,29,17,09,4.00
2016,03,29,17,10,6.60
2016,03,29,17,11,5.50
2016,03,29,17,12,7.10
2016,03,29,17,13,6.70
2016,03,29,17,14,4.40
2016,03,29,17,15,4.30
2016,03,29,17,16,4.00
2016,03,29,17,17,4.90
2016,03,29,17,18,3.90
2016,03,29,17,19,2.00
2016,03,29,17,20,3.00
2016,03,29,17,21,2.00
2016,03,29,17,22,2.70
2016,03,29,17,23,3.30
2016,03,29,17,24,5.30
2016,03,29,17,25,5.00
2016,03,29,17,26,5.10
2016,03,29,17,27,4.70
2016,03,29,17,28,4.30
2016,03,29,17,29,1.70
2016,03,29,17,30,1.20
2016,03,29,17,31,3.90
2016,03,29,17,32,5.20
2016,03,29,17,33,3.10
2016,03,29,17,34,3.10
2016,03,29,17,35,2.30
2016,03,29,17,36,1.60
2016,03,29,17,37,2.90
2016,03,29,17,38,2.90
2016,03,29,17,39,4.60
2016,03,29,17,40,3.50
2016,03,29,17,41,3.40
2016,03,29,17,42,3.40
2016,03,29,17,43,3.40
2016,03,29,17,44,3.00
2016,03,29,17,45,4.00
2016,03,29,17,46,3.10
2016,03,29,17,47,4.30
2016,03,29,17,48,4.90
2016,03,29,17,49,4.10
2016,03,29,17,50,3.90
2016,03,29,17,51,3.40
2016,03,29,17,52,3.00
2016,03,29,17,53,2.90
2016,03,29,17,54,3.20
2016,03,29,17,55,4.20
2016,03,29,17,56,3.50
2016,03,29,17,57,2.40
2016,03,29,17,58,4.20
2016,03,29,17,59,2.20
2016,03,29,18,00,2.20
2016,03,29,18,01,2.90
2016,03,29,18,02,3.40
2016,03,29,18,03,4.40
2016,03,29,18,04,4.60
2016,03,29,18,05,4.20